Regional Weather Roundup
Issued by NWS

Home | Current Version | Previous Version | Text Only | Print | Product List | Glossary On
Versions: 1 2 3 4 5 6 7 8 9 10 11 12 13 14 15 16 17 18 19 20 21 22 23 24 25 26 27 28 29 30 31 32 33 34 35 36 37 38 39 40 41 42 43 44 45 46 47 48 49 50
000
ASUS43 KDTX 042310
RWRMI
MICHIGAN HOURLY REGIONAL WEATHER ROUNDUP
NATIONAL WEATHER SERVICE DETROIT/PONTIAC MI
700 PM EDT MON MAY 04 2015

NOTE: "FAIR" INDICATES FEW OR NO CLOUDS BELOW 12,000 FEET WITH NO
SIGNIFICANT WEATHER AND/OR OBSTRUCTION TO VISIBILITY.

MIZ047>049-052>055-059>063-066>070-074>076-081>083-050000-
SOUTHEAST LOWER MICHIGAN

CITY           SKY/WX    TMP DP  RH WIND       PRES   REMARKS
ADRIAN         PTSUNNY   73  58  59 W9        30.12S
ALMA           PTSUNNY   73  50  43 N10       30.11R
ANN ARBOR      PTSUNNY   75  60  59 S8        30.10S
BAD AXE        MOSUNNY   70  55  58 SW3       30.11R
CARO           MOSUNNY   72  55  54 CALM      30.10S
DETROIT CITY   PTSUNNY   73  59  61 SW9       30.10R
DETROIT        PTSUNNY   76  60  57 S13       30.10R
FLINT          PTSUNNY   73  55  53 NW7       30.11R
GROSSE ILE     PTSUNNY   66  61  82 S12       30.09S
HILLSDALE      PTSUNNY   73  55  52 W10       30.13S
HOWELL         MOSUNNY   74  52  47 W8        30.11S

CITY           SKY/WX    TMP DP  RH WIND       PRES   REMARKS
JACKSON        PTSUNNY   73  54  51 W9        30.11S
LAMBERTVILLE   PTSUNNY   72  59  64 SW7       30.13R
LANSING        MOSUNNY   73  54  51 W9        30.12S
LAPEER         FAIR      71  54  54 N6        30.11R
MASON          MOSUNNY   73  54  52 NW8       30.11S
MONROE         PTSUNNY   73  61  64 SW12      30.10S
MT. CLEMENS    PTSUNNY   75  55  48 NW10      30.07R
PONTIAC        PTSUNNY   74  53  48 NW8       30.10S
PORT HOPE        N/A     55  47  74 N13       30.12R
PORT HURON     PTSUNNY   72  57  60 NW5       30.11R
TRI CITIES     MOSUNNY   76  44  32 NW10      30.10R
MIDLAND        FAIR      74  38  26 N9        30.10R
TROY           MOSUNNY   76  53  43 NW10G17   30.12R
SAGINAW HB     MOSUNNY   73  52  46 W9        30.10R
$$
MIZ043>046-050>051-056>058-064>065-071>073-077>080-050000-
SOUTHWEST LOWER MICHIGAN

CITY           SKY/WX    TMP DP  RH WIND       PRES   REMARKS
BATTLE CREEK   MOSUNNY   72  54  53 W10       30.14R
BENTON HARBOR  PTSUNNY   64  54  69 W3        30.15R
BIG RAPIDS     SUNNY     69  35  27 N15G24    30.13R
COLDWATER      PTSUNNY   71  53  54 W8        30.13S
FREMONT        FAIR      71  36  27 N13       30.11R
HOLLAND        MOSUNNY   63  50  62 VRB5      30.15S
GRAND RAPIDS   PTSUNNY   72  51  47 W12       30.12S
IONIA          FAIR      73  55  52 SW13      30.10S
KALAMAZOO      PTSUNNY   71  55  56 W7        30.14S
LUDINGTON      MOSUNNY   68  30  24 NE6       30.16S
MARSHALL       MOSUNNY   72  55  56 W10G20    30.12R
MOUNT PLEASANT MOSUNNY   73  39  29 NW9       30.11R
MUSKEGON       PTSUNNY   63  41  44 SW5       30.13S
SOUTH HAVEN    PTSUNNY   62  53  71 CALM      30.15S
$$
MIZ016>042-050000-
NORTHERN LOWER MICHIGAN

CITY           SKY/WX    TMP DP  RH WIND       PRES   REMARKS
ALPENA         SUNNY     66  35  31 N17G23    30.13R
BEAVER ISLAND  SUNNY     55  31  39 NW9       30.20R
BELLAIRE       MOSUNNY   62  37  39 NW7       30.19R
CADILLAC       MOSUNNY   62  33  33 N9        30.18R
CHARLEVOIX     MOSUNNY   53  37  55 NW7       30.23R
FRANKFORT      MOSUNNY   63  32  31 NE5       30.19R
GAYLORD        SUNNY     61  34  36 NW8       30.18R
GRAYLING       SUNNY     63  32  30 NW9       30.18R
HARBOR SPRINGS SUNNY     47  36  64 S5        30.19R
HOUGHTON LAKE  MOSUNNY   64  33  31 NW14      30.16R
MANISTEE       MOSUNNY   66  34  30 NE10      30.18S
OSCODA         SUNNY     62  42  47 E8        30.12R
PELLSTON       SUNNY     62  33  33 NW16      30.18R
ROGERS CITY    SUNNY     60  34  37 N9G16     30.16R
TRAVERSE CITY  PTSUNNY   57  38  48 NE8       30.19R
$$
MIZ007>008-015-050000-
EASTERN UPPER MICHIGAN

CITY           SKY/WX    TMP DP  RH WIND       PRES   REMARKS
KINROSS        SUNNY     54  39  58 NW20G25   30.17R
MACKINAC ISLAN SUNNY     62  29  28 N10       30.16R
NEWBERRY       MOSUNNY   55  36  48 NW13G18   30.20R
S. S. MARIE    SUNNY     49  37  63 NW14G23   30.18R
MUNISING         N/A     49  37  63 CALM      30.22R
$$
MIZ004>006-011>014-085-050000-
CENTRAL UPPER MICHIGAN

CITY           SKY/WX    TMP DP  RH WIND       PRES   REMARKS
MANISTIQUE     SUNNY     59  32  37 N10G18    30.20R
ESCANABA       SUNNY     61  34  36 N10G21    30.17S
MENOMINEE      MOSUNNY   61  37  41 E9        30.18R
SAWYER-GWINN   SUNNY     55  32  41 NE10      30.21R
$$
MIZ001>003-009>011-084-050000-
WESTERN UPPER MICHIGAN

CITY           SKY/WX    TMP DP  RH WIND       PRES   REMARKS
IRON MOUNTAIN  SUNNY     67  22  18 NW5       30.16R
HOUGHTON       SUNNY     60  31  33 W6        30.19R
COPPER HARBOR    N/A     51  39  63 N5        30.19R
IRONWOOD       MOSUNNY   61  21  21 CALM      30.19S
$$

ABBREVIATIONS USED IN REMARKS
   TC - TEMPERATURE IN CELSIUS
  WCI - WIND CHILL INDEX
   HX - HEAT INDEX
  VSB - VISIBILITY



USA.gov is the U.S. government's official web portal to all federal, state and local government web resources and services.